Temp
59 59 59 60 59 59 59 59 59 59 60 60 60 60 60 60 59 54 52 65 66 71 73 73 72 72 70 66 70 66 51 47 54 60 65 69 67 76 82 78 79 82 79 84 86
60 60 60 59 59 59 59 59 59 59 59 60 60 59 59 59 52 50 63 69 70 71 71 71 70 70 61 63 64 59 50 55 63 69 65 68 70 74 75 72 74 78 83 85 85
59 59 59 59 59 58 58 58 58 59 59 59 59 59 59 58 48 56 72 71 70 71 69 73 75 69 60 63 62 60 56 66 67 70 71 70 70 76 73 68 74 75 80 84 82
58 59 58 58 58 58 58 58 58 59 59 59 59 59 60 51 45 64 73 71 72 73 66 68 67 61 58 58 64 56 65 68 71 73 71 70 74 72 74 74 82 83 82 82 81
58 58 58 58 58 58 58 58 58 58 58 58 58 59 56 43 45 66 70 68 70 70 63 64 63 62 56 59 65 61 63 68 71 72 71 73 70 70 72 79 81 83 83 79 79
57 57 57 57 57 57 57 57 57 57 57 58 58 59 52 38 59 63 64 64 65 63 66 65 62 64 59 59 61 61 64 66 67 67 69 69 70 72 74 80 80 80 79 79 77
57 57 57 57 57 57 57 57 56 56 58 58 59 58 49 46 60 61 59 56 59 61 59 67 70 67 61 54 63 61 56 62 63 63 65 70 64 66 75 79 77 79 80 77 77
57 56 56 57 57 57 57 57 56 58 60 60 59 56 44 60 61 56 59 57 60 60 62 66 67 64 59 58 61 56 53 50 62 65 66 68 55 69 75 75 75 75 74 76 76
56 56 56 56 56 57 56 56 58 61 60 60 51 48 41 62 57 62 59 57 62 64 64 72 63 58 57 49 45 49 48 50 55 66 66 66 59 69 76 75 73 73 75 76 78
56 55 55 55 56 55 55 55 57 58 59 60 57 44 51 55 63 66 68 62 59 61 59 59 54 48 46 47 40 43 44 52 52 59 64 62 60 67 71 72 71 72 74 76 77
56 55 55 55 55 55 52 48 48 46 49 46 50 50 54 62 66 62 66 61 60 55 47 51 45 42 48 52 52 50 50 47 55 61 61 59 59 64 68 66 68 70 71 72 69
55 55 55 55 55 54 47 47 51 51 40 53 53 54 60 61 52 59 65 52 51 43 48 44 43 52 54 53 50 48 44 44 52 58 56 55 56 60 63 66 68 69 70 71 73
54 54 55 54 53 50 46 52 57 51 37 47 55 55 59 59 52 53 59 54 47 43 43 40 47 56 53 50 48 46 45 46 46 54 57 53 51 55 62 63 67 70 67 68 67
54 54 54 53 50 45 47 57 53 52 30 43 51 56 60 60 51 65 61 54 48 43 45 43 50 50 47 47 49 42 52 52 50 46 40 53 40 52 59 62 66 68 70 66 67
54 54 54 53 44 43 54 51 52 49 21 50 53 65 62 55 57 55 61 55 45 46 46 41 44 45 45 47 52 45 53 50 50 44 41 45 39 50 56 57 61 64 68 66 72
54 54 54 48 44 48 51 50 49 31 21 43 51 49 49 54 54 54 53 58 56 46 47 45 53 50 48 53 53 54 49 47 47 41 31 42 41 46 51 56 61 65 64 70 67
54 53 51 52 47 49 49 44 28 22 44 39 40 46 45 46 49 50 47 45 39 35 34 44 46 52 54 46 49 46 37 28 27 27 32 46 42 49 53 57 59 59 62 65 66
52 51 49 51 47 49 45 35 23 36 37 46 44 44 40 45 45 46 46 41 46 43 39 34 31 46 54 48 41 40 39 29 26 27 35 48 39 48 60 66 69 70 67 65 65
50 43 44 50 51 48 39 23 28 36 43 41 42 37 37 43 42 41 42 40 45 45 37 36 37 52 52 53 49 41 36 44 35 37 33 38 46 57 62 61 64 62 65 63 62
42 41 45 53 52 46 35 32 36 44 46 44 33 38 32 36 35 36 38 44 41 46 43 39 31 45 50 52 52 46 48 35 32 27 26 35 39 44 51 59 64 63 61 62 62
41 41 51 53 50 41 31 31 39 48 48 42 37 36 37 34 34 34 37 43 45 44 44 37 34 37 43 41 39 41 38 39 38 35 29 29 35 49 54 57 56 59 62 63 62
37 37 51 52 36 31 28 39 45 45 49 45 42 40 37 37 34 36 37 41 46 45 36 39 32 28 34 44 50 44 41 39 34 32 39 34 38 60 53 56 59 60 63 59 55
38 37 49 48 26 25 35 40 43 43 43 43 40 42 42 36 31 37 41 47 47 44 37 38 30 24 29 36 42 38 43 42 37 36 35 34 38 57 57 60 62 60 61 60 58
41 33 38 38 36 31 32 35 37 45 44 45 41 43 37 34 37 35 38 46 47 45 50 43 34 29 23 32 37 34 40 43 36 29 37 39 43 52 57 56 58 60 58 57 59
37 33 36 28 32 33 32 35 36 36 43 42 38 39 36 33 34 33 39 40 45 48 41 39 32 33 35 38 38 37 37 40 39 38 32 43 43 46 50 53 59 62 60 59 60
32 33 37 34 35 35 35 33 36 40 39 37 36 39 38 32 36 33 37 36 35 41 38 36 28 33 33 39 39 36 39 40 40 42 41 42 41 52 56 57 61 59 63 62 62
41 38 35 34 38 35 36 39 38 41 41 43 41 39 35 38 44 45 44 41 42 40 37 35 32 28 28 39 36 30 37 40 42 45 44 37 44 55 53 56 59 58 59 64 64
MSLP
1021.08 1020.72 1020.36 1019.98 1019.64 1019.20 1018.72 1018.23 1017.79 1017.54 1017.18 1016.81 1016.53 1015.96 1015.46 1015.27 1014.32 1013.71 1012.73 1009.83 1009.47 1008.86 1008.94 1009.32 1009.24 1009.36 1009.60 1009.60 1009.33 1009.58 1010.33 1010.27 1008.52 1007.40 1005.98 1004.73 1004.05 1003.46 1002.97 1002.86 1002.28 1002.46 1002.08 1001.62 1001.60
1021.04 1020.60 1020.23 1019.88 1019.47 1019.09 1018.69 1018.24 1017.81 1017.29 1016.96 1016.68 1016.23 1015.95 1015.63 1015.01 1014.03 1012.76 1009.63 1008.98 1009.15 1009.29 1009.14 1008.90 1008.90 1009.14 1009.59 1009.46 1009.34 1009.43 1009.37 1008.46 1007.29 1006.64 1005.64 1004.74 1004.20 1003.94 1003.52 1003.39 1002.77 1002.56 1002.13 1002.06 1002.10
1021.00 1020.59 1020.18 1019.75 1019.28 1018.85 1018.47 1018.12 1017.75 1017.28 1016.81 1016.49 1016.29 1015.96 1015.42 1014.94 1014.02 1010.13 1008.75 1008.72 1009.06 1009.37 1009.26 1008.78 1008.64 1008.62 1009.27 1009.15 1008.95 1008.61 1007.73 1007.08 1006.10 1006.03 1005.65 1005.04 1004.89 1004.20 1003.97 1003.35 1002.75 1002.60 1002.31 1002.07 1002.25
1020.98 1020.55 1020.09 1019.62 1019.16 1018.66 1018.15 1017.65 1017.23 1016.87 1016.59 1016.36 1016.02 1015.67 1015.24 1015.06 1013.17 1008.85 1008.28 1008.76 1008.77 1008.28 1009.00 1008.58 1008.46 1008.70 1008.84 1008.28 1007.75 1007.75 1007.17 1006.77 1005.57 1005.62 1005.55 1004.68 1004.62 1004.20 1003.79 1003.39 1002.25 1002.32 1002.38 1002.58 1002.54
1021.01 1020.49 1019.97 1019.41 1018.85 1018.29 1017.77 1017.26 1016.73 1016.26 1016.08 1015.98 1015.82 1015.76 1015.59 1015.05 1012.93 1008.80 1009.19 1009.04 1008.81 1008.16 1008.43 1008.30 1007.97 1007.93 1007.95 1007.47 1007.59 1007.17 1006.97 1006.55 1005.65 1005.58 1005.23 1004.97 1004.10 1004.05 1003.30 1003.18 1002.96 1002.69 1002.40 1002.35 1002.18
1020.79 1020.25 1019.68 1019.09 1018.50 1017.88 1017.22 1016.61 1016.14 1015.88 1015.56 1015.28 1015.24 1015.26 1015.29 1014.93 1010.66 1009.84 1009.94 1009.51 1009.24 1008.89 1008.46 1008.14 1007.37 1007.05 1007.49 1007.37 1007.40 1006.66 1006.67 1006.45 1005.98 1005.27 1005.21 1005.19 1003.95 1003.83 1002.97 1002.31 1002.31 1002.34 1002.02 1001.79 1001.87
1020.66 1020.08 1019.42 1018.79 1018.14 1017.41 1016.61 1015.86 1015.35 1015.19 1014.79 1014.59 1014.63 1014.72 1014.45 1012.62 1010.11 1009.80 1010.31 1010.21 1009.79 1009.67 1009.00 1007.85 1007.34 1006.98 1007.10 1007.42 1007.04 1006.72 1006.85 1006.34 1005.79 1005.50 1004.90 1005.05 1003.38 1002.41 1002.58 1002.27 1002.12 1001.45 1001.32 1001.18 1001.01
1020.62 1020.08 1019.42 1018.77 1018.09 1017.37 1016.33 1015.41 1014.56 1014.47 1013.87 1013.82 1014.16 1014.29 1013.24 1010.19 1010.00 1009.93 1009.87 1008.78 1008.53 1008.56 1008.65 1007.72 1007.50 1007.27 1007.39 1007.22 1007.09 1007.08 1006.82 1006.10 1005.02 1005.52 1004.99 1005.09 1000.70 1001.91 1001.85 1001.95 1001.50 1001.11 1000.85 1000.81 1000.31
1020.61 1020.02 1019.33 1018.57 1017.76 1016.95 1016.02 1014.89 1013.84 1013.55 1013.50 1013.76 1014.14 1014.08 1012.26 1010.14 1009.74 1008.81 1008.85 1008.63 1007.89 1007.47 1007.54 1006.96 1007.13 1007.23 1007.47 1007.77 1008.15 1007.32 1005.83 1005.19 1005.35 1004.38 1004.54 1004.45 1000.13 1002.08 1001.91 1001.88 1001.34 1000.99 1000.58 1000.38 1000.03
1020.38 1019.72 1019.08 1018.38 1017.37 1016.41 1015.37 1014.37 1013.52 1013.80 1013.66 1013.56 1013.28 1013.66 1011.29 1009.69 1008.47 1007.84 1007.99 1008.45 1007.88 1007.23 1007.20 1006.89 1007.15 1007.29 1007.60 1007.77 1006.57 1006.52 1006.03 1005.34 1004.84 1004.39 1004.28 1003.85 1001.08 1002.04 1001.97 1001.95 1001.27 1000.76 1000.42 1000.14 999.88
1020.04 1019.42 1018.59 1017.82 1017.15 1016.57 1015.75 1014.99 1014.64 1014.08 1013.87 1013.53 1012.44 1012.24 1010.47 1008.67 1008.22 1006.59 1007.38 1007.70 1007.27 1007.05 1006.79 1006.71 1007.16 1006.31 1005.78 1006.13 1006.40 1006.51 1006.44 1006.38 1005.14 1004.65 1004.43 1003.55 1002.08 1001.89 1001.91 1001.66 1001.02 1000.35 1000.07 999.59 999.33
1019.62 1019.06 1018.27 1017.38 1016.73 1016.34 1016.25 1015.86 1015.27 1015.37 1014.08 1012.46 1011.53 1010.92 1009.36 1008.43 1007.81 1006.26 1006.56 1007.62 1007.31 1007.06 1007.05 1007.14 1005.82 1006.21 1006.49 1006.73 1006.88 1006.86 1006.90 1006.74 1006.06 1005.20 1004.95 1004.14 1002.78 1002.35 1001.81 1000.96 1000.34 999.88 999.64 999.19 999.00
1019.47 1018.72 1018.11 1017.28 1016.52 1016.33 1016.25 1015.39 1014.86 1015.02 1014.89 1012.22 1010.72 1009.28 1007.94 1007.79 1007.34 1006.35 1006.85 1006.84 1007.65 1007.59 1007.31 1007.01 1006.32 1006.30 1006.37 1006.58 1006.58 1006.75 1006.88 1007.04 1006.87 1006.24 1005.21 1005.12 1003.04 1002.12 1000.91 1000.35 999.76 998.97 998.74 998.45 998.82
1019.34 1018.60 1017.91 1017.19 1016.44 1016.72 1015.83 1014.76 1014.77 1014.91 1014.68 1012.06 1009.96 1008.43 1007.66 1007.15 1006.56 1005.78 1006.15 1006.86 1007.38 1007.44 1007.34 1007.05 1006.31 1006.16 1006.32 1006.41 1006.71 1006.72 1007.02 1006.93 1007.08 1007.16 1006.57 1005.79 1002.84 1002.17 1000.35 999.54 999.20 998.65 998.15 998.12 998.10
1019.00 1018.42 1017.88 1017.60 1017.26 1016.86 1015.23 1014.87 1014.49 1014.78 1014.11 1011.11 1009.40 1007.93 1007.44 1007.37 1005.96 1006.13 1006.23 1006.52 1006.75 1006.95 1006.93 1006.80 1006.28 1006.07 1006.18 1006.19 1006.41 1006.40 1007.17 1007.17 1007.44 1007.50 1007.21 1006.21 1005.47 998.49 1000.05 998.36 998.06 997.83 997.39 997.35 996.91
1018.47 1017.83 1017.45 1017.17 1017.29 1015.46 1015.08 1014.85 1014.68 1015.27 1013.56 1011.51 1010.08 1009.19 1008.32 1007.38 1007.00 1007.44 1006.54 1005.75 1005.90 1006.88 1006.81 1006.73 1006.03 1006.09 1006.05 1006.05 1006.25 1006.43 1006.72 1007.19 1007.63 1008.09 1007.10 1005.80 1005.56 998.64 998.97 997.16 996.97 996.56 996.68 996.51 996.71
1017.65 1016.93 1016.76 1016.52 1015.73 1014.95 1014.93 1015.28 1015.56 1015.11 1013.89 1012.88 1011.42 1010.25 1009.41 1008.53 1007.73 1007.53 1007.15 1006.47 1006.87 1007.19 1007.12 1006.83 1006.37 1005.88 1005.88 1006.08 1006.13 1006.62 1007.27 1007.87 1008.58 1008.26 1006.01 1004.79 1004.78 998.70 997.12 996.58 996.24 996.09 996.30 996.32 996.16
1016.82 1016.02 1015.91 1015.50 1015.18 1015.13 1015.53 1015.93 1015.96 1015.35 1014.38 1013.44 1012.24 1010.95 1010.34 1009.56 1008.88 1008.10 1007.82 1007.74 1007.92 1007.97 1007.70 1007.22 1006.57 1005.68 1005.49 1005.61 1005.97 1006.51 1007.27 1007.31 1007.50 1007.01 1006.13 1005.06 1002.09 997.54 997.40 996.03 995.61 995.96 996.10 995.73 995.82
1016.47 1016.22 1016.00 1014.92 1015.04 1015.47 1016.38 1016.59 1016.34 1015.56 1014.62 1013.61 1012.55 1011.71 1011.22 1010.70 1010.37 1009.42 1008.89 1008.58 1008.27 1008.31 1008.23 1007.49 1006.93 1005.93 1005.74 1005.62 1005.85 1006.22 1006.86 1006.95 1007.37 1006.84 1006.23 1003.52 1000.05 998.05 996.61 996.05 995.53 995.69 995.48 995.48 995.70
1017.59 1017.08 1015.86 1014.85 1014.88 1015.85 1016.98 1017.02 1016.06 1015.28 1014.40 1013.72 1013.35 1012.66 1012.32 1011.64 1011.26 1010.68 1009.89 1009.53 1009.23 1008.94 1008.75 1008.42 1007.97 1007.12 1006.42 1006.15 1005.78 1005.78 1006.25 1007.15 1007.38 1006.86 1005.69 1002.66 1000.37 997.38 996.22 996.16 995.43 995.35 995.99 995.57 995.07
1017.64 1017.12 1015.45 1015.03 1015.12 1016.53 1017.69 1017.37 1016.00 1014.91 1014.29 1013.88 1013.67 1013.33 1012.96 1012.74 1012.24 1011.40 1010.76 1010.14 1010.01 1009.68 1009.52 1009.37 1009.20 1008.49 1007.60 1006.80 1006.29 1006.41 1006.35 1006.58 1006.58 1006.34 1004.85 1002.87 999.11 996.93 996.75 996.08 996.28 996.05 995.65 995.23 994.48
1018.73 1017.81 1015.84 1015.41 1016.59 1017.67 1017.98 1017.33 1016.19 1014.85 1014.14 1013.87 1013.86 1013.52 1013.35 1012.92 1012.51 1011.78 1011.05 1010.53 1010.15 1010.09 1010.16 1010.07 1010.06 1009.54 1008.39 1007.03 1006.50 1006.68 1006.66 1006.56 1006.69 1006.01 1004.51 1003.21 998.46 996.17 996.42 996.38 996.38 996.10 995.71 995.45 995.43
1019.73 1018.60 1016.15 1015.91 1017.88 1018.56 1017.93 1017.04 1016.19 1015.06 1014.27 1013.94 1013.88 1013.56 1013.51 1013.33 1013.05 1011.97 1010.98 1010.11 1010.03 1010.05 1010.18 1010.54 1010.61 1010.44 1008.89 1007.91 1007.29 1007.13 1006.71 1006.67 1006.53 1006.07 1004.25 1003.44 998.23 996.84 996.87 996.62 996.54 996.32 995.72 995.72 996.18
1019.91 1019.49 1018.28 1018.18 1018.58 1018.92 1018.53 1017.21 1016.18 1015.44 1014.45 1014.18 1013.87 1013.40 1013.59 1013.31 1012.93 1012.04 1011.04 1010.09 1009.90 1010.01 1010.00 1010.54 1010.70 1010.30 1009.56 1008.76 1008.39 1007.80 1007.12 1006.74 1006.64 1005.85 1003.77 1001.53 1000.03 999.43 997.66 997.11 996.78 996.33 996.24 996.00 996.37
1020.58 1020.69 1020.30 1019.74 1019.29 1019.23 1018.75 1017.53 1016.52 1015.64 1015.10 1014.49 1013.92 1013.66 1013.81 1013.20 1012.52 1011.65 1010.82 1010.46 1009.81 1009.53 1009.93 1010.28 1010.39 1010.08 1009.48 1008.89 1008.39 1007.55 1007.05 1006.41 1006.06 1005.23 1004.04 1001.67 1000.41 1000.24 998.86 997.89 997.28 996.09 996.08 996.17 996.10
1021.59 1021.60 1020.76 1020.34 1019.52 1019.07 1018.28 1017.43 1016.60 1015.71 1015.47 1014.68 1014.24 1013.68 1013.48 1013.03 1012.28 1011.29 1011.14 1010.80 1010.30 1009.70 1009.93 1010.34 1010.31 1009.88 1009.40 1008.55 1007.66 1006.64 1005.69 1005.47 1005.08 1004.28 1003.04 1002.02 1000.11 1000.07 998.71 997.85 997.14 995.96 995.38 994.96 995.33
1021.67 1021.59 1021.36 1020.20 1019.23 1018.86 1018.00 1017.06 1016.40 1015.78 1014.91 1014.50 1013.96 1013.29 1012.65 1011.77 1011.18 1010.36 1009.98 1009.98 1009.78 1009.45 1009.51 1010.06 1010.20 1009.99 1008.72 1007.62 1007.19 1005.49 1002.97 1003.18 1003.03 1002.69 1001.85 1001.16 1000.14 999.16 998.17 997.53 996.82 995.78 994.87 993.94 994.26
Wind_Speed
13 14 14 14 15 16 16 18 18 18 18 18 18 19 19 21 22 4 9 14 10 18 4 3 2 5 2 3 4 5 3 5 6 6 5 6 5 2 5 4 6 6 4 8 7
14 14 16 16 17 16 17 17 18 20 19 19 19 18 19 21 8 11 16 18 17 9 3 8 8 7 4 5 5 5 5 10 8 10 3 6 9 8 4 3 5 5 5 1 2
15 15 16 17 18 17 17 17 17 18 19 19 18 18 18 16 6 8 9 7 13 12 10 7 6 6 6 6 6 7 10 18 8 9 3 6 9 5 7 8 8 3 11 8 2
17 18 18 19 19 19 19 19 19 18 17 17 18 17 17 3 8 3 5 19 13 10 11 8 5 7 8 12 7 4 13 15 15 11 4 14 6 11 14 12 16 14 6 8 11
18 19 20 20 21 21 21 21 21 21 19 16 14 13 6 4 13 11 23 19 10 3 9 14 11 8 10 4 5 15 7 9 18 15 10 10 17 14 19 14 13 14 14 12 11
20 21 22 23 24 24 23 22 22 21 20 18 13 8 4 10 8 7 9 9 7 5 4 13 8 6 4 6 9 2 11 15 11 10 6 12 21 15 14 19 14 11 11 11 11
21 22 25 26 26 26 26 25 23 21 19 15 10 5 8 21 6 6 12 8 6 9 6 9 13 8 7 1 5 4 7 10 10 4 7 1 23 25 18 15 16 18 16 10 10
21 21 24 25 25 25 26 26 27 22 14 7 7 5 8 7 8 12 11 11 11 12 10 12 8 4 5 1 4 4 4 15 12 10 6 7 29 11 11 14 19 12 9 9 12
21 21 24 25 25 24 24 24 23 14 2 7 4 5 12 9 5 9 11 10 5 8 8 9 4 5 4 5 3 5 17 17 9 5 8 17 30 13 14 12 16 13 14 14 15
22 21 22 23 26 25 26 23 20 6 4 6 5 2 6 15 20 19 20 8 7 5 5 7 4 5 3 10 18 10 12 11 11 4 11 15 27 12 10 13 17 17 17 19 19
21 22 23 23 24 23 12 6 7 6 4 7 11 8 20 16 19 19 5 12 10 5 9 5 6 17 23 18 2 4 9 3 8 10 14 19 24 20 15 11 17 18 18 18 11
23 22 25 24 24 23 2 2 4 6 9 11 13 13 15 10 10 21 5 3 5 3 4 3 19 12 5 7 7 6 5 3 7 8 4 10 17 10 10 13 15 18 17 16 14
23 23 24 24 25 3 2 5 3 0 3 9 7 9 7 2 7 16 6 5 2 7 4 7 7 11 6 7 7 6 11 8 5 9 17 12 18 12 13 9 12 17 10 10 9
21 22 22 24 4 5 6 5 6 2 3 7 5 6 5 7 7 5 6 6 6 10 6 5 7 6 3 11 7 11 4 5 8 5 11 3 19 18 21 24 20 19 18 9 11
23 22 19 13 3 3 6 7 6 4 3 10 6 6 14 6 15 12 16 9 8 5 6 6 1 4 10 5 6 11 10 9 12 6 4 7 6 24 8 22 17 15 17 13 18
24 23 19 0 1 8 7 8 4 6 4 6 11 14 16 11 9 9 7 1 6 4 6 5 5 4 6 5 5 1 4 7 7 3 7 8 9 26 10 21 19 21 12 16 10
27 26 13 3 5 2 3 5 6 4 8 10 12 16 15 13 9 8 11 8 4 2 2 6 13 9 5 5 4 4 4 1 1 3 11 13 10 25 6 3 5 8 10 12 11
30 19 3 4 2 5 4 6 6 4 4 9 13 15 6 10 6 13 6 2 3 3 2 1 2 8 3 11 6 6 9 5 7 5 7 6 16 18 13 23 21 19 13 10 10
19 4 2 4 3 3 6 6 2 4 11 9 14 4 4 5 5 8 6 5 3 3 4 3 3 2 3 1 7 2 5 7 4 4 2 7 11 19 20 15 14 10 9 10 9
3 4 4 1 5 5 6 4 3 8 12 6 3 5 5 7 7 6 5 4 9 8 5 3 2 3 4 3 6 7 5 4 1 6 6 7 9 13 6 19 19 15 10 11 10
3 4 3 3 4 6 2 5 8 10 11 3 3 5 4 4 4 4 4 2 6 9 6 3 2 4 3 3 3 1 3 4 3 5 5 3 9 7 12 9 5 9 11 13 11
4 3 4 3 5 1 0 7 10 7 10 4 4 5 3 4 4 3 5 3 5 3 5 4 2 3 9 8 7 4 4 3 7 7 11 1 11 8 3 7 7 9 11 9 1
4 4 4 5 3 3 6 5 4 6 9 2 4 4 1 3 5 4 5 3 4 1 0 3 0 3 8 3 3 2 4 7 1 3 11 10 10 5 8 14 12 10 9 2 4
3 5 5 5 1 1 4 4 4 9 12 6 8 2 3 4 6 7 11 7 3 5 9 4 4 6 6 5 4 6 9 6 3 4 11 22 18 19 23 17 15 16 5 5 6
4 2 1 5 4 6 3 3 7 7 4 4 4 3 7 7 11 8 5 7 6 8 2 5 5 5 8 12 15 15 15 19 16 11 6 13 17 6 15 14 17 20 7 8 10
3 4 4 6 6 4 4 3 7 12 5 6 6 14 12 9 13 19 14 8 7 6 5 4 5 4 12 16 18 17 21 19 18 18 14 15 23 11 18 12 14 16 13 13 15
2 3 0 5 4 3 4 6 13 11 6 9 14 14 9 14 11 16 16 17 16 9 6 7 2 2 6 6 10 14 17 20 15 12 9 15 10 12 6 9 11 13 13 16 18
Wind_Direction
350 345 341 337 333 330 329 327 327 326 325 326 328 331 331 326 322 296 249 232 200 246 304 314 154 192 145 245 192 138 113 238 239 181 232 320 21 152 334 6 354 351 164 215 203
354 348 343 339 335 333 329 325 323 322 322 322 326 328 329 328 314 250 242 244 245 264 209 207 218 160 179 213 207 162 167 224 216 224 270 317 310 336 325 26 300 326 293 347 296
349 343 338 333 330 327 324 321 318 316 316 319 321 324 328 329 304 249 71 355 250 261 257 282 225 170 200 183 205 194 212 231 236 228 248 278 285 298 307 294 207 260 292 319 256
348 342 337 333 329 325 320 316 312 308 308 314 320 325 329 314 285 295 338 347 331 279 227 206 207 190 201 205 186 213 224 236 253 240 249 262 275 281 274 263 297 293 265 289 275
342 338 335 331 328 325 321 316 311 307 306 306 308 319 341 359 254 285 321 332 323 43 207 217 202 176 204 193 192 242 222 242 251 252 253 272 261 255 264 266 269 279 275 262 257
339 338 335 331 329 326 320 314 309 306 304 301 299 305 279 276 256 288 316 326 351 349 305 215 216 196 207 211 202 187 216 246 264 264 252 267 271 264 263 270 272 259 254 258 245
338 337 335 332 328 325 319 314 308 309 303 289 277 256 249 247 211 280 313 284 279 275 290 242 248 203 158 272 251 255 284 272 230 246 250 348 268 252 248 267 262 261 263 249 254
336 332 328 327 325 321 315 312 311 314 304 268 210 211 251 271 272 282 274 273 220 231 225 257 269 243 181 262 336 219 202 240 251 214 235 167 256 257 228 235 255 266 262 267 271
335 331 328 326 326 322 312 308 308 335 357 140 130 161 267 289 256 261 206 266 300 203 208 250 155 190 89 131 358 244 240 232 256 199 201 200 260 248 255 255 266 273 276 281 282
336 334 328 330 330 332 327 317 293 318 159 168 150 290 271 304 294 298 304 249 264 240 203 191 168 158 161 166 212 216 229 237 233 200 215 246 259 243 272 278 273 270 273 271 270
337 335 330 332 334 331 332 356 8 342 41 239 259 253 271 281 291 294 266 326 263 220 187 184 168 204 200 207 293 15 253 2 264 220 211 237 258 259 252 241 253 257 257 262 256
334 337 333 332 333 329 88 30 292 262 300 263 244 252 247 254 296 295 123 169 310 219 160 176 225 211 162 198 241 266 276 271 295 296 251 279 276 281 261 254 248 254 261 264 272
330 331 331 331 324 11 276 239 346 200 283 293 250 251 285 203 257 266 154 138 271 292 248 209 254 222 201 213 217 219 240 255 252 327 299 306 284 279 262 246 260 266 253 250 236
328 328 331 334 18 322 291 281 333 175 30 277 282 269 287 313 253 318 182 166 202 222 192 236 249 264 262 237 239 253 198 240 236 212 261 206 287 275 276 271 259 259 260 251 242
326 327 326 324 268 311 259 342 313 67 352 326 337 281 317 350 305 357 318 176 207 228 132 238 32 200 232 230 200 251 253 257 229 234 263 240 308 269 216 263 252 244 256 251 250
324 325 325 118 227 238 336 301 58 51 278 320 330 334 330 346 33 36 298 127 182 190 264 240 263 164 194 230 207 140 204 219 226 123 251 204 190 277 238 244 248 244 229 247 251
326 322 313 175 233 44 348 33 46 88 344 337 325 330 313 339 354 9 337 341 27 156 219 252 246 254 201 243 278 162 79 175 157 204 229 191 188 238 254 241 230 234 240 247 250
327 324 196 220 321 17 41 47 69 352 25 297 309 314 342 357 332 344 359 98 110 312 324 252 260 192 180 202 185 178 162 175 185 187 226 152 226 237 230 261 264 266 272 258 261
333 345 325 270 169 76 55 41 277 1 324 321 314 337 318 340 315 353 347 355 18 180 238 195 251 333 102 171 146 196 164 201 15 235 231 233 276 281 275 273 283 272 274 271 256
353 338 287 27 111 63 64 301 282 319 312 314 294 353 318 328 340 2 342 16 345 18 351 5 338 335 343 344 232 165 191 83 289 212 233 254 256 238 226 238 266 278 295 286 259
28 28 291 57 61 53 109 253 300 304 322 324 299 296 299 325 285 307 298 353 15 348 350 14 135 285 24 232 193 244 194 203 187 201 228 293 258 203 215 254 260 287 292 294 271
347 45 306 49 47 59 337 297 294 290 328 285 237 268 299 280 292 288 299 273 23 356 341 335 158 252 237 232 261 248 210 197 209 231 239 313 259 316 234 346 326 311 315 302 104
349 287 311 81 70 316 292 282 262 304 312 296 273 247 289 286 318 249 258 192 223 34 72 310 314 314 328 40 75 212 244 221 203 300 237 230 242 356 344 334 326 312 324 12 113
360 347 328 42 19 104 303 296 312 323 299 343 281 294 345 283 219 270 282 293 180 241 251 123 227 201 189 244 309 288 298 218 208 211 248 242 279 291 296 312 328 312 272 165 143
26 318 223 310 332 320 275 275 320 318 280 301 287 300 310 277 301 257 242 301 280 270 91 162 249 205 248 265 269 262 262 269 257 244 211 268 269 284 283 288 302 289 255 183 168
38 12 340 286 274 296 291 291 311 332 309 300 277 308 300 260 253 282 284 266 243 287 176 175 258 228 271 258 258 274 263 246 245 247 252 260 273 252 263 275 304 301 285 196 183
302 311 273 272 306 300 297 310 308 318 287 269 300 308 301 277 281 274 268 258 250 242 213 174 199 338 258 283 319 268 235 219 228 214 216 243 245 252 258 279 298 305 302 197 179